Content
SEND FEEDBACK

Daily
Averages
Monthly
Summary
Algeria

ADRAR, ALGERIA


Home > Africa > Algeria
Elevation: 863 feet     Latitude: 27 52N     Longitude: 000 16W

WEATHER
 
SELECT A DAY
Number of Records: 143,746;   Date Range: 1/1/98 - 9/29/14
 
SHARE

PRINT THIS DATA

[ ← Previous Day ]
WEATHER ALMANAC - JANUARY 31, 2013
[ Next Day → ]
[ °C ]   °F
Weather ElementAverageHighLow
Temperature41.5 °F77 °F (4:00 pm) (2:00 pm)
Dewpoint7.5 °F21.2 °F (12:00 pm) (7:00 pm)
Humidity17.1 %31 % (9:00 am)4 % (10:00 pm)
Barometer30.40 in30.48 in (11:00 am)30.30 in (7:00 pm)
Wind Speed11 mph15 mph (5:00 pm)
Weather ElementAverage
Visibility6 mi
Wind DirectionENE (54.7 °)

Weather ElementTotal
Precipitation---
Heating Degree Days26.5 (Base 65)
Averaged from 30 records on January 31, 2013
WEATHER CONDITIONS BREAKOUT
WIND DIRECTION BREAKOUT
WEATHER BY HOUR - JANUARY 31, 2013
[ °C ]   °F
Local TimeTemperatureDewpointHumidityBarometerVisibilityWind DirectionWind SpeedGust SpeedPrecipitationEventsConditions
1:00 AM52.0 °F4.0 °F6 %30.44 in6.0 miNNE (30°)8.1 mph
1:00 AM51.8 °F5.0 °F15 %30.45 inNNE (30°)8.1 mphClear
2:00 AM50.0 °F6.8 °F17 %30.42 inNE (50°)8.1 mphClear
3:00 AM50.0 °F6.8 °F17 %30.42 inNE (40°)9.2 mphClear
4:00 AM48.0 °F7.0 °F9 %30.41 in6.0 miNE (40°)10.4 mph
4:00 AM48.2 °F6.8 °F19 %30.42 inNE (40°)10.4 mphClear
5:00 AM44.6 °F6.8 °F21 %30.39 inNE (40°)11.5 mphClear
6:00 AM42.8 °F6.8 °F23 %30.39 inNE (40°)9.2 mphClear
7:00 AM42.0 °F9.0 °F14 %30.42 in6.0 miENE (60°)12.7 mph
7:00 AM42.8 °F8.6 °F25 %30.42 inENE (60°)12.7 mphClear
8:00 AM41.0 °F10.4 °F29 %30.42 inENE (60°)11.5 mphClear
9:00 AM41.0 °F12.2 °F31 %30.45 inNorth (10°)11.5 mphClear
10:00 AM50.0 °F20.0 °F18 %30.45 in6.0 miNNE (20°)8.1 mph
10:00 AM50.0 °F19.4 °F30 %30.45 inNNE (20°)8.1 mphClear
11:00 AM57.2 °F19.4 °F23 %30.48 inNNE (30°)11.5 mphClear
12:00 PM64.4 °F21.2 °F19 %30.45 inNE (40°)9.2 mphClear
1:00 PM70.0 °F18.0 °F6 %30.42 in6.0 miNNE (30°)11.5 mph
1:00 PM69.8 °F17.6 °F14 %30.42 inNNE (30°)11.5 mphClear
2:00 PM0.0 °F0.0 °F30.42 inENE (60°)11.5 mphClear
3:00 PM0.0 °F0.0 °F30.36 inNE (40°)11.5 mphClear
4:00 PM77.0 °F30.33 in6.0 miNNE (30°)13.8 mph
4:00 PM0.0 °F0.0 °F30.33 inNNE (30°)13.8 mphClear
5:00 PM0.0 °F0.0 °F30.33 inNNE (30°)15.0 mphClear
6:00 PM0.0 °F0.0 °F30.33 inNNE (20°)11.5 mphClear
7:00 PM74.0 °F30.32 in6.0 miNorth (10°)11.5 mph
7:00 PM0.0 °F0.0 °F30.30 inNorth (10°)11.5 mphClear
8:00 PM0.0 °F0.0 °F30.36 inNorth (360°)12.7 mphClear
9:00 PM62.6 °F1.4 °F9 %30.36 inNorth (360°)13.8 mphClear
10:00 PM58.0 °F2.0 °F4 %30.38 in6.0 miNorth (10°)10.4 mph
10:00 PM59.0 °F1.4 °F10 %30.36 inNorth (10°)10.4 mphClear
Hourly data recorded from DAUA, located miles away from Adrar, Algeria







STORIES FROM OUR PARTNERS